Regional Weather Roundup
Issued by NWS Mt. Holly, NJ

Home | Current Version | Previous Version | Text Only | Print | Product List | Glossary On
Versions: 1 2 3 4 5 6 7 8 9 10 11 12 13 14 15 16 17 18 19 20 21 22 23 24 25 26 27 28 29 30 31 32 33 34 35 36 37 38 39 40 41 42 43 44 45 46 47 48 49 50
000
ASUS41 KPHI 300610
RWRPHI

REGIONAL WEATHER ROUNDUP
NATIONAL WEATHER SERVICE MOUNT HOLLY NJ
200 AM EDT WED JUL 30 2014

NOTE:  "FAIR" INDICATES FEW OR NO CLOUDS BELOW 12,000 FEET WITH NO
SIGNIFICANT WEATHER AND/OR OBSTRUCTIONS TO VISIBILITY.

 * = STATION DOES NOT REPORT PRECIPITATION (E.G. RAIN, SNOW, ETC.)
        OR FOG.

NJZ015>026-300700-
SOUTHERN NEW JERSEY

CITY           SKY/WX    TMP DP  RH WIND       PRES   REMARKS
POMONA         MOCLDY    65  60  84 N5        29.97F
6HR MIN TEMP:  65; 6HR MAX TEMP:  72;

RIO GRANDE*    CLEAR     63  55  77 NW3       29.99S
MILLVILLE      CLEAR     58  57  97 CALM      29.99S
WRIGHTSTOWN    CLOUDY    62  58  87 N3        29.97S
MOUNT HOLLY    MOCLDY    59  57  93 CALM      29.98F
TRENTON        CLOUDY    63  56  78 NW3       29.98F
6HR MIN TEMP:  63; 6HR MAX TEMP:  71;


$$
NJZ001>014-300700-
NORTHERN NEW JERSEY

CITY           SKY/WX    TMP DP  RH WIND       PRES   REMARKS
SUSSEX         MOCLDY    59  56  89 CALM      30.00R
ANDOVER*         N/A     53  52  96 CALM      30.01S
MORRISTOWN     CLOUDY    55  54  94 CALM      29.99F
NEWARK         MOCLDY    65  53  65 CALM      29.98S
TETERBORO      PTCLDY    65  52  62 CALM      29.97F
CALDWELL       MOCLDY    59  53  80 CALM      29.99S
SOMERVILLE     CLOUDY    57  54  89 CALM      29.98S
ALLAIRE*       CLOUDY    64  54  68 NW3       29.98S
TOMS RIVER*    CLOUDY    61  57  88 CALM      29.99S

$$
PAZ043-044-047-054-055-060>062-066>071-300700-
EASTERN PENNSYLVANIA

CITY           SKY/WX    TMP DP  RH WIND       PRES   REMARKS
PHILADELPHIA   PTCLDY    66  53  63 N5        29.99F
6HR MIN TEMP:  66; 6HR MAX TEMP:  74;

NORTH PHILA    PTCLDY    65  53  65 CALM      30.00F
BLUE BELL      PTCLDY    57  55  94 CALM      29.99R
DOYLESTOWN     MOCLDY    59  56  89 CALM      29.99F
QUAKERTOWN*    CLEAR     54  54 100 CALM      30.01S
POTTSTOWN      CLEAR     56  53  90 CALM      30.01S
LANCASTER      CLEAR     57  53  86 W7        30.01S
COATESVILLE    CLEAR     57  57 100 NW5       30.01F
READING        CLEAR     57  53  86 CALM      30.00S
6HR MIN TEMP:  57; 6HR MAX TEMP:  68;

ALLENTOWN      CLEAR     57  53  86 CALM      30.00F
6HR MIN TEMP:  54; 6HR MAX TEMP:  68;

MOUNT POCONO   CLEAR     49  47  93 CALM      30.03R
6HR MIN TEMP:  48; 6HR MAX TEMP:  61;

HAZLETON       CLEAR     48  48 100 CALM      30.05F FOG
WILKES BARRE   CLEAR     54  50  86 SE5       30.01S

$$
DEZALL-MDZ008-012-015-019-020-300700-
DELAWARE AND EASTERN MARYLAND

CITY           SKY/WX    TMP DP  RH WIND       PRES   REMARKS
WILMINGTON     CLEAR     63  56  78 CALM      30.00S
6HR MIN TEMP:  60; 6HR MAX TEMP:  70;

DOVER          CLEAR     62  59  89 W2        29.97S
GEORGETOWN     CLEAR     59  55  87 VRB5      30.00F
6HR MIN TEMP:  58; 6HR MAX TEMP:  71;

EASTON         MOCLDY    63  59  87 CALM      30.04S
PATUXENT       PTCLDY    61  52  72 W6        30.01S
OCEAN CITY     CLEAR     55  52  89 W5        29.99F
WALLOPS ISLAND PTCLDY    61  55  81 CALM      30.00F
CAMBRIDGE      PTCLDY    59  54  82 CALM      30.00F

$$
PAZ001-021-NYZ056-072-MDZ011-DCZ001-300700-
OTHER NEARBY LOCATIONS

CITY           SKY/WX    TMP DP  RH WIND       PRES   REMARKS
HARRISBURG     PTCLDY    60  53  77 N5        30.01S
STATE COLLEGE  PTCLDY    54  51  90 SW6       30.03S
WILLIAMSPORT   CLEAR     57  53  86 CALM      30.00S
BINGHAMTON     CLOUDY    55  50  83 SW3       30.01S
NEW YORK CITY  MOCLDY    66  51  58 CALM      30.01S
BALTIMORE      PTCLDY    60  51  72 W5        30.02S
WASHINGTON DC  PTCLDY    65  49  56 W5        30.03F

$$


USA.gov is the U.S. government's official web portal to all federal, state and local government web resources and services.